This is the latest recevied weather packets stored in our database for station/object WX5KDM. If no packets are shown the sender has not sent any weather packets the latest 1 day(s).
| Time | Temp. | Humidity | Pressure | Rain* | Wind** | Luminosity | Snow |
|---|---|---|---|---|---|---|---|
| 1778040773 | 22.22° C | 78% | 1010.1 hPa | 0 mm | 1.34 m/s, 225° | - | - |
| 1778040471 | 22.22° C | 78% | 1010.5 hPa | 0 mm | 1.34 m/s, 241° | - | - |
| 1778040168 | 22.22° C | 78% | 1010.2 hPa | 0 mm | 0.89 m/s, 262° | - | - |
| 1778039864 | 22.22° C | 78% | 1010.3 hPa | 0 mm | 0.89 m/s, 203° | - | - |
| 1778039561 | 22.22° C | 78% | 1010.4 hPa | 0 mm | 1.34 m/s, 207° | - | - |
| 1778039258 | 22.22° C | 78% | 1010.5 hPa | 0 mm | 0.45 m/s, 137° | - | - |
| 1778038955 | 22.22° C | 77% | 1010.4 hPa | 0 mm | 0 m/s | - | - |
| 1778038652 | 22.22° C | 77% | 1010.4 hPa | 0 mm | 0.89 m/s, 206° | - | - |
| 1778038350 | 22.22° C | 77% | 1010.5 hPa | 0 mm | 0.45 m/s, 187° | - | - |
| 1778038046 | 22.22° C | 77% | 1010.7 hPa | 0 mm | 0.89 m/s, 199° | - | - |
| 1778037743 | 22.22° C | 78% | 1010.4 hPa | 0 mm | 0 m/s | - | - |
| 1778037440 | 22.22° C | 78% | 1010.5 hPa | 0 mm | 0.89 m/s, 194° | - | - |
| 1778037137 | 22.22° C | 78% | 1010.3 hPa | 0 mm | 0.89 m/s, 212° | - | - |
| 1778036836 | 22.22° C | 78% | 1010.1 hPa | 0 mm | 0.89 m/s, 223° | - | - |
| 1778036533 | 22.22° C | 78% | 1009.9 hPa | 0 mm | 0.45 m/s, 260° | - | - |
| 1778036229 | 21.67° C | 79% | 1009.9 hPa | 0 mm | 1.79 m/s, 154° | - | - |
| 1778035926 | 21.67° C | 79% | 1010.2 hPa | 0 mm | 0.45 m/s, 210° | - | - |
| 1778035623 | 21.67° C | 80% | 1010.5 hPa | 0 mm | 0 m/s | - | - |
| 1778035319 | 21.67° C | 79% | 1010.2 hPa | 0 mm | 0 m/s | - | - |
| 1778035015 | 21.67° C | 80% | 1010.1 hPa | 0 mm | 0 m/s | - | - |
| 1778034713 | 21.67° C | 80% | 1009.9 hPa | 0 mm | 0 m/s | - | - |
| 1778034410 | 21.67° C | 80% | 1010.3 hPa | 0 mm | 0 m/s | - | - |
| 1778034107 | 21.67° C | 80% | 1009.8 hPa | 0 mm | 0 m/s | - | - |
| 1778033805 | 21.67° C | 80% | 1009.7 hPa | 0 mm | 0 m/s | - | - |
| 1778033502 | 21.67° C | 80% | 1009.7 hPa | 0 mm | 0.89 m/s, 181° | - | - |
* Rain latest hour (hover to see other rain measurements)
** Current wind speed in m/s (hover to see current wind gust speed)